K1WJY Weather Reports


time (UTC)temp
C
wind
direction
speed
KPH
gust
KPH
rain 1hr
cm
rain 24hr
cm
rain mn
cm
humidity
%
barometer
mb
20260508111224 7 310 4.8 4.8 0.00 0.00 0.00 75 1009.0
20260508110721 7 359 3.2 4.8 0.00 0.00 0.00 75 1009.0
20260508110218 6 279 3.2 3.2 0.00 0.00 0.00 76 1008.9
20260508105718 6 316 6.4 8.0 0.00 0.00 0.00 77 1008.8
20260508105215 6 342 1.6 1.6 0.00 0.00 0.00 80 1008.8
20260508104712 5 17 0.0 0.0 0.00 0.00 0.00 81 1008.6
20260508104209 4 353 0.0 0.0 0.00 0.00 0.00 86 1008.6
20260508103706 3 349 0.0 0.0 0.00 0.00 0.00 91 1008.7
20260508103203 2 346 0.0 0.0 0.00 0.00 0.00 97 1008.6
20260508102700 2 24 0.0 0.0 0.00 0.00 0.00 99 1008.5
20260508102159 1 351 0.0 0.0 0.00 0.00 0.00 99 1008.3
20260508101655 1 352 0.0 0.0 0.00 0.00 0.00 99 1008.3
20260508101153 1 2 0.0 0.0 0.00 0.00 0.00 99 1008.2
20260508100650 0 2 0.0 0.0 0.00 0.00 0.00 99 1008.5
20260508100148 0 1 0.0 0.0 0.00 0.00 0.00 99 1008.4
20260508095644 0 7 0.0 0.0 0.00 0.00 0.00 99 1008.1
20260508095142 0 11 0.0 0.0 0.00 0.00 0.00 99 1008.2
20260508094638 0 350 0.0 0.0 0.00 0.00 0.00 99 1008.0
20260508094135 0 1 0.0 0.0 0.00 0.00 0.00 99 1008.1
20260508093633 0 16 0.0 0.0 0.00 0.00 0.00 98 1008.0
20260508093130 0 17 0.0 0.0 0.00 0.00 0.00 98 1008.1
20260508092627 0 15 0.0 0.0 0.00 0.00 0.00 98 1008.1
20260508092126 0 10 0.0 0.0 0.00 0.00 0.00 98 1008.0
20260508091622 0 354 0.0 0.0 0.00 0.00 0.00 98 1008.1
20260508091120 0 352 0.0 0.0 0.00 0.00 0.00 97 1007.8
20260508090618 0 351 0.0 0.0 0.00 0.00 0.00 97 1007.8
20260508090115 0 359 0.0 0.0 0.00 0.00 0.00 97 1007.6
20260508085611 0 0 0.0 0.0 0.00 0.00 0.00 97 1007.4
20260508085108 0 1 0.0 0.0 0.00 0.00 0.00 97 1007.8
20260508084604 0 1 0.0 0.0 0.00 0.00 0.00 96 1007.5
20260508084102 1 2 0.0 0.0 0.00 0.00 0.00 96 1007.7
20260508083559 1 357 0.0 0.0 0.00 0.00 0.00 96 1007.8
20260508083056 1 357 0.0 0.0 0.00 0.00 0.00 96 1007.8
20260508082551 1 354 0.0 0.0 0.00 0.00 0.00 95 1007.7
20260508082049 1 354 0.0 0.0 0.00 0.00 0.00 94 1007.8
20260508081546 1 354 0.0 0.0 0.00 0.00 0.00 94 1007.8
20260508081042 1 348 0.0 0.0 0.00 0.00 0.00 93 1007.6
20260508080540 1 354 0.0 0.0 0.00 0.00 0.00 93 1007.7
20260508080037 1 354 0.0 0.0 0.00 0.00 0.00 92 1007.7
20260508075534 1 354 0.0 0.0 0.00 0.00 0.00 91 1007.6
20260508075032 2 354 0.0 0.0 0.00 0.00 0.00 90 1007.4
20260508074529 2 354 0.0 0.0 0.00 0.00 0.00 88 1007.5
20260508074026 2 354 0.0 0.0 0.00 0.00 0.00 86 1007.5
20260508073523 2 350 0.0 0.0 0.00 0.00 0.00 85 1007.4
20260508073021 2 349 0.0 0.0 0.00 0.00 0.00 86 1007.4
20260508072516 2 346 0.0 0.0 0.00 0.00 0.00 87 1007.5
20260508072014 2 344 0.0 0.0 0.00 0.00 0.00 88 1007.4
20260508071511 2 349 0.0 0.0 0.00 0.00 0.00 90 1007.3
20260508071009 2 354 0.0 0.0 0.00 0.00 0.00 90 1007.2
20260508070506 1 359 0.0 0.0 0.00 0.00 0.00 91 1007.4
20260508070005 1 354 0.0 0.0 0.00 0.00 0.00 91 1007.2
20260508065502 1 2 0.0 0.0 0.00 0.00 0.00 92 1007.4
20260508065000 1 6 0.0 0.0 0.00 0.00 0.00 92 1007.3
20260508064457 1 12 0.0 0.0 0.00 0.00 0.00 92 1007.4
20260508063955 1 21 0.0 0.0 0.00 0.00 0.00 94 1007.3
20260508063452 1 9 0.0 0.0 0.00 0.00 0.00 94 1007.3
20260508062950 1 4 0.0 0.0 0.00 0.00 0.00 93 1007.5
20260508062447 1 2 0.0 0.0 0.00 0.00 0.00 93 1007.3
20260508061944 1 1 0.0 0.0 0.00 0.00 0.00 93 1007.4
20260508061442 1 1 0.0 0.0 0.00 0.00 0.00 94 1007.4
20260508060937 1 1 0.0 0.0 0.00 0.00 0.00 94 1007.5
20260508060435 1 2 0.0 0.0 0.00 0.00 0.00 93 1007.6
20260508055931 1 0 0.0 0.0 0.00 0.00 0.00 93 1007.7
20260508055428 2 359 0.0 0.0 0.00 0.00 0.00 92 1007.5
20260508054924 2 359 0.0 0.0 0.00 0.00 0.00 92 1007.6
20260508054422 2 358 0.0 0.0 0.00 0.00 0.00 92 1007.8
20260508053919 2 358 0.0 0.0 0.00 0.00 0.00 91 1007.7
20260508053415 2 359 0.0 0.0 0.00 0.00 0.00 89 1007.7
20260508052913 2 358 0.0 0.0 0.00 0.00 0.00 89 1007.6
20260508052411 2 358 0.0 0.0 0.00 0.00 0.00 90 1007.8
20260508051906 2 358 0.0 0.0 0.00 0.00 0.00 89 1007.8
20260508051402 2 358 0.0 0.0 0.00 0.00 0.00 90 1007.8
20260508050858 2 358 0.0 0.0 0.00 0.00 0.00 90 1008.0
20260508050356 2 358 0.0 0.0 0.00 0.00 0.00 89 1007.7
20260508045851 3 358 0.0 0.0 0.00 0.00 0.00 88 1007.8
20260508045349 3 358 0.0 0.0 0.00 0.00 0.00 86 1007.9
20260508044847 3 358 0.0 0.0 0.00 0.00 0.00 83 1007.9
20260508044343 3 358 0.0 0.0 0.00 0.00 0.00 83 1008.1
20260508043839 3 358 0.0 0.0 0.00 0.00 0.00 83 1008.0
20260508043337 4 358 0.0 0.0 0.00 0.00 0.00 81 1008.0
20260508042833 4 357 0.0 0.0 0.00 0.00 0.00 81 1008.1
20260508042331 4 358 0.0 0.0 0.00 0.00 0.00 81 1008.2
20260508041827 4 358 0.0 0.0 0.00 0.00 0.00 82 1008.1
20260508041324 5 358 0.0 0.0 0.00 0.00 0.00 80 1008.2
20260508040820 4 358 0.0 0.0 0.00 0.00 0.00 80 1008.2
20260508040318 4 358 0.0 0.0 0.00 0.00 0.00 80 1008.2
20260508035815 4 358 0.0 0.0 0.00 0.48 0.48 80 1008.3
20260508035313 4 358 0.0 0.0 0.00 0.48 0.48 79 1008.5
20260508034809 4 358 0.0 0.0 0.00 0.48 0.48 83 1008.3
20260508034306 4 354 0.0 0.0 0.00 0.48 0.48 83 1008.6
20260508033803 4 355 0.0 0.0 0.00 0.48 0.48 82 1008.6
20260508033301 4 354 0.0 0.0 0.00 0.48 0.48 82 1008.4
20260508032758 4 355 0.0 0.0 0.00 0.48 0.48 83 1008.4
20260508032256 4 351 0.0 0.0 0.00 0.48 0.48 82 1008.5
20260508031752 5 3 0.0 0.0 0.00 0.48 0.48 81 1008.2
20260508031249 5 5 0.0 0.0 0.00 0.48 0.48 82 1008.4
20260508030745 5 11 0.0 0.0 0.00 0.48 0.48 79 1008.4
20260508030243 6 354 0.0 0.0 0.00 0.48 0.48 75 1008.4
20260508025739 6 354 0.0 0.0 0.00 0.48 0.48 69 1008.1
20260508025236 6 351 0.0 0.0 0.00 0.48 0.48 67 1008.0
20260508024732 7 345 0.0 0.0 0.00 0.48 0.48 66 1008.0
20260508024229 7 351 0.0 0.0 0.00 0.48 0.48 65 1008.0
20260508023726 7 6 0.0 0.0 0.00 0.48 0.48 63 1008.1
20260508023224 7 13 0.0 0.0 0.00 0.48 0.48 62 1008.2
20260508022719 8 359 0.0 0.0 0.00 0.48 0.48 61 1008.1
20260508022216 8 18 1.6 1.6 0.00 0.48 0.48 60 1008.3
20260508021713 8 356 0.0 0.0 0.00 0.48 0.48 59 1008.0
20260508021208 8 355 0.0 0.0 0.00 0.48 0.48 60 1008.3
20260508020706 8 12 1.6 3.2 0.00 0.48 0.48 61 1008.2
20260508020203 8 353 0.0 0.0 0.00 0.48 0.48 62 1007.9
20260508015700 8 332 4.8 8.0 0.00 0.48 0.48 62 1008.1
20260508015157 8 347 0.0 0.0 0.00 0.48 0.48 63 1008.2
20260508014653 8 3 0.0 0.0 0.00 0.48 0.48 61 1008.4
20260508014149 8 355 0.0 0.0 0.00 0.48 0.48 61 1008.4
20260508013646 9 356 0.0 0.0 0.00 0.48 0.48 61 1008.3
20260508013143 9 331 1.6 1.6 0.00 0.48 0.48 60 1008.4
20260508012640 10 15 0.0 1.6 0.00 0.48 0.48 59 1008.3
20260508012137 10 347 3.2 3.2 0.00 0.48 0.48 58 1008.3
20260508011636 10 341 1.6 1.6 0.00 0.48 0.48 59 1008.2
20260508011133 10 350 0.0 0.0 0.00 0.48 0.48 59 1008.1
20260508010629 10 351 0.0 1.6 0.00 0.48 0.48 59 1008.1
20260508010128 10 337 4.8 8.0 0.00 0.48 0.48 59 1008.3
20260508005624 10 4 4.8 4.8 0.00 0.48 0.48 60 1008.0
20260508005120 10 350 1.6 3.2 0.00 0.48 0.48 59 1007.9
20260508004616 11 329 6.4 9.7 0.00 0.48 0.48 59 1007.9
20260508004113 11 337 4.8 8.0 0.00 0.48 0.48 62 1008.0
20260508003609 10 349 0.0 0.0 0.00 0.48 0.48 70 1007.8
20260508003108 10 329 0.0 0.0 0.00 0.48 0.48 79 1007.6
20260508002604 9 53 4.8 8.0 0.00 0.48 0.48 92 1007.5
20260508002101 9 339 0.0 0.0 0.00 0.48 0.48 92 1007.5
20260508001556 9 303 0.0 0.0 0.00 0.48 0.48 91 1007.2
20260508001053 9 6 0.0 0.0 0.00 0.48 0.48 90 1007.3
20260508000549 9 349 0.0 0.0 0.00 0.48 0.48 89 1007.0
20260508000047 9 5 0.0 0.0 0.00 0.48 0.48 88 1007.1
20260507235543 10 325 0.0 0.0 0.00 0.48 0.48 86 1006.6
20260507235040 10 312 0.0 0.0 0.00 0.48 0.48 85 1006.9
20260507234536 10 14 0.0 0.0 0.00 0.48 0.48 85 1006.7
20260507234033 10 355 0.0 0.0 0.00 0.48 0.48 83 1006.6
20260507233530 10 155 1.6 3.2 0.00 0.48 0.48 83 1006.3
20260507233029 10 184 1.6 1.6 0.00 0.48 0.48 82 1006.2
20260507232524 10 285 0.0 0.0 0.00 0.48 0.48 82 1006.2
20260507232022 11 247 3.2 3.2 0.00 0.48 0.48 81 1006.0
20260507231518 11 287 0.0 0.0 0.00 0.48 0.48 81 1005.8
20260507231016 11 227 0.0 0.0 0.00 0.48 0.48 80 1005.8
20260507230512 11 274 0.0 0.0 0.00 0.48 0.48 80 1005.7
20260507230009 11 269 0.0 0.0 0.00 0.48 0.48 80 1005.8
20260507225504 11 226 0.0 0.0 0.00 0.48 0.48 80 1005.8
20260507225000 11 183 3.2 4.8 0.00 0.48 0.48 79 1005.5
20260507224456 11 163 3.2 3.2 0.00 0.48 0.48 79 1005.5
20260507223953 11 245 3.2 3.2 0.00 0.48 0.48 78 1005.3
20260507223449 12 239 0.0 0.0 0.00 0.48 0.48 78 1005.4
20260507222946 12 311 0.0 0.0 0.00 0.48 0.48 77 1005.3
20260507222443 12 189 0.0 0.0 0.00 0.48 0.48 77 1005.6
20260507221939 12 36 1.6 3.2 0.00 0.48 0.48 76 1005.4
20260507221436 12 278 3.2 3.2 0.00 0.48 0.48 74 1005.7
20260507220932 13 190 4.8 9.7 0.00 0.48 0.48 74 1005.3
20260507220431 13 212 6.4 9.7 0.00 0.48 0.48 73 1005.6
20260507215927 13 262 3.2 3.2 0.00 0.48 0.48 74 1005.6
20260507215423 13 195 3.2 8.0 0.00 0.48 0.48 73 1005.5
20260507214921 13 217 4.8 4.8 0.00 0.48 0.48 74 1005.6
20260507214419 13 183 6.4 8.0 0.00 0.48 0.48 73 1005.6
20260507213914 13 189 4.8 11.3 0.00 0.48 0.48 73 1005.4
20260507213410 14 167 4.8 8.0 0.00 0.48 0.48 72 1005.7
20260507212908 13 286 3.2 3.2 0.00 0.48 0.48 72 1005.6
20260507212403 13 285 0.0 1.6 0.00 0.48 0.48 74 1005.6
20260507211900 12 265 1.6 1.6 0.00 0.48 0.48 76 1005.6
20260507211356 13 102 4.8 8.0 0.00 0.48 0.48 72 1005.6
20260507210854 13 328 6.4 9.7 0.00 0.48 0.48 71 1005.5
20260507210350 12 214 3.2 4.8 0.00 0.48 0.48 75 1005.4
20260507205847 12 176 4.8 9.7 0.00 0.48 0.48 73 1005.5
20260507205344 13 200 11.3 14.5 0.00 0.48 0.48 72 1005.4
20260507204840 13 224 8.0 9.7 0.00 0.48 0.48 71 1005.3
20260507204337 13 244 4.8 4.8 0.00 0.48 0.48 71 1005.3
20260507203835 13 173 3.2 4.8 0.00 0.48 0.48 70 1005.2
20260507203333 15 83 4.8 12.9 0.00 0.48 0.48 66 1005.0
20260507202829 15 241 4.8 9.7 0.00 0.48 0.48 67 1005.3
20260507202325 15 182 11.3 16.1 0.00 0.48 0.48 67 1005.2
20260507201821 15 228 9.7 12.9 0.00 0.48 0.48 66 1005.0
20260507201317 15 179 9.7 11.3 0.00 0.48 0.48 67 1005.0
20260507200813 15 29 4.8 8.0 0.00 0.48 0.48 65 1005.0
20260507200309 15 209 3.2 4.8 0.00 0.48 0.48 68 1005.1
20260507195805 15 123 6.4 8.0 0.00 0.48 0.48 69 1005.1
20260507195305 13 162 3.2 4.8 0.00 0.48 0.48 72 1005.2
20260507194800 13 216 8.0 11.3 0.00 0.48 0.48 73 1005.2
20260507194256 13 217 6.4 9.7 0.00 0.48 0.48 72 1005.2
20260507193753 15 165 4.8 8.0 0.00 0.48 0.48 71 1005.0
20260507193250 15 136 3.2 3.2 0.00 0.48 0.48 70 1005.2
20260507192745 14 109 4.8 11.3 0.00 0.48 0.48 71 1005.1
20260507192242 15 197 4.8 8.0 0.00 0.48 0.48 71 1005.1
20260507191739 15 122 9.7 12.9 0.00 0.48 0.48 70 1005.2
20260507191236 15 222 8.0 11.3 0.00 0.48 0.48 69 1005.1
20260507190732 16 259 4.8 8.0 0.00 0.48 0.48 67 1005.1
20260507190231 15 186 8.0 9.7 0.00 0.48 0.48 68 1005.3
20260507185729 16 313 8.0 12.9 0.00 0.48 0.48 66 1005.0
20260507185225 16 210 3.2 3.2 0.00 0.48 0.48 64 1005.1
20260507184723 16 145 4.8 4.8 0.00 0.48 0.48 62 1005.6
20260507184221 16 138 8.0 11.3 0.00 0.48 0.48 62 1005.4
20260507183717 16 170 3.2 3.2 0.00 0.48 0.48 63 1005.4
20260507183214 17 287 1.6 1.6 0.00 0.48 0.48 58 1005.3
20260507182712 17 256 1.6 3.2 0.00 0.48 0.48 58 1005.5
20260507182207 17 245 4.8 8.0 0.00 0.48 0.48 56 1005.3
20260507181703 17 247 1.6 1.6 0.00 0.48 0.48 53 1005.3
20260507181200 17 243 3.2 3.2 0.00 0.48 0.48 52 1005.2
20260507180656 16 198 0.0 0.0 0.00 0.48 0.48 54 1005.4
20260507180154 16 252 1.6 3.2 0.00 0.48 0.48 53 1005.3
20260507175649 16 314 9.7 11.3 0.00 0.48 0.48 49 1005.7
20260507175147 16 293 3.2 3.2 0.00 0.48 0.48 50 1005.7
20260507174644 17 313 3.2 4.8 0.00 0.48 0.48 51 1005.5
20260507174142 17 222 4.8 4.8 0.00 0.48 0.48 49 1005.6
20260507173639 16 76 3.2 4.8 0.00 0.48 0.48 51 1005.5
20260507173136 16 264 4.8 4.8 0.00 0.48 0.48 50 1005.5
20260507172632 16 289 1.6 1.6 0.00 0.48 0.48 52 1005.4
20260507172130 16 334 1.6 1.6 0.00 0.48 0.48 52 1005.5
20260507171624 17 274 6.4 9.7 0.00 0.48 0.48 49 1005.4
20260507171121 16 335 3.2 4.8 0.00 0.48 0.48 55 1005.7
20260507170618 16 272 4.8 4.8 0.00 0.48 0.48 53 1005.7
20260507170115 16 314 0.0 1.6 0.00 0.48 0.48 54 1005.7
20260507165611 16 16 0.0 0.0 0.00 0.48 0.48 53 1006.0
20260507165107 16 300 1.6 1.6 0.00 0.48 0.48 56 1006.1
20260507164603 17 316 4.8 4.8 0.00 0.48 0.48 50 1005.9
20260507164100 17 315 1.6 3.2 0.00 0.48 0.48 54 1005.9
20260507163558 16 272 3.2 4.8 0.00 0.48 0.48 52 1006.0
20260507163056 16 309 3.2 3.2 0.00 0.48 0.48 58 1006.2
20260507162556 17 341 4.8 4.8 0.00 0.48 0.48 54 1006.0
20260507162053 16 312 1.6 1.6 0.00 0.48 0.48 54 1005.8
20260507161549 16 283 0.0 0.0 0.00 0.48 0.48 56 1006.0
20260507161046 16 351 4.8 4.8 0.00 0.48 0.48 59 1006.1
20260507160542 16 12 1.6 1.6 0.00 0.48 0.48 57 1006.3
20260507160038 15 12 0.0 1.6 0.00 0.48 0.48 63 1006.3
20260507155534 16 291 3.2 3.2 0.00 0.48 0.48 57 1006.6
20260507155031 16 31 3.2 8.0 0.00 0.48 0.48 61 1006.6
20260507154528 15 354 3.2 3.2 0.00 0.48 0.48 62 1006.6
20260507154026 15 294 3.2 3.2 0.00 0.48 0.48 61 1006.7
20260507153522 15 26 0.0 0.0 0.00 0.48 0.48 67 1006.7
20260507153018 15 2 4.8 4.8 0.00 0.48 0.48 64 1006.9
20260507152514 15 314 4.8 4.8 0.00 0.48 0.48 65 1007.0
20260507152011 15 321 1.6 1.6 0.00 0.48 0.48 63 1007.0
20260507151507 14 307 3.2 3.2 0.00 0.48 0.48 67 1006.9
20260507151004 15 44 3.2 4.8 0.00 0.48 0.48 65 1006.9
20260507150501 14 314 3.2 3.2 0.00 0.48 0.48 63 1007.1
20260507145957 13 4 3.2 3.2 0.00 0.48 0.48 68 1007.2
20260507145453 15 315 8.0 11.3 0.00 0.48 0.48 64 1007.3
20260507144950 14 278 1.6 1.6 0.00 0.48 0.48 71 1007.0
20260507144447 14 293 3.2 3.2 0.00 0.48 0.48 69 1007.4
20260507143944 13 298 11.3 12.9 0.00 0.48 0.48 66 1007.2
20260507143442 13 288 1.6 1.6 0.00 0.48 0.48 70 1007.4
20260507142938 13 331 6.4 8.0 0.00 0.48 0.48 66 1007.3
20260507142434 13 313 3.2 8.0 0.00 0.48 0.48 71 1007.5
20260507141931 13 35 3.2 4.8 0.00 0.48 0.48 70 1007.5
20260507141427 13 312 1.6 3.2 0.00 0.48 0.48 75 1007.2
20260507140924 13 294 3.2 4.8 0.00 0.48 0.48 74 1007.5
20260507140420 13 281 4.8 8.0 0.00 0.48 0.48 74 1007.5
20260507135919 13 357 1.6 3.2 0.00 0.48 0.48 75 1007.7
20260507135414 12 330 1.6 1.6 0.00 0.48 0.48 77 1007.5
20260507134912 13 29 1.6 1.6 0.00 0.48 0.48 74 1007.7
20260507134408 12 325 0.0 1.6 0.00 0.48 0.48 78 1008.1
20260507133904 12 328 4.8 8.0 0.00 0.48 0.48 79 1007.9
20260507133400 12 345 4.8 8.0 0.00 0.48 0.48 76 1007.9
20260507132859 12 348 4.8 4.8 0.00 0.48 0.48 82 1008.1
20260507132355 12 357 1.6 3.2 0.00 0.48 0.48 84 1008.0
20260507131852 11 310 8.0 11.3 0.00 0.48 0.48 81 1008.0
20260507131349 11 351 1.6 1.6 0.00 0.48 0.48 84 1007.8
20260507130846 11 336 3.2 3.2 0.00 0.48 0.48 83 1007.9
20260507130343 11 319 3.2 3.2 0.00 0.48 0.48 85 1007.7
20260507125842 11 312 1.6 3.2 0.00 0.48 0.48 87 1008.1
20260507125339 11 317 4.8 8.0 0.00 0.48 0.48 86 1007.8
20260507124836 10 328 1.6 3.2 0.00 0.48 0.48 89 1007.6
20260507124332 10 349 0.0 0.0 0.00 0.48 0.48 92 1007.6
20260507123831 10 0 0.0 0.0 0.00 0.48 0.48 96 1007.7
20260507123328 8 305 1.6 3.2 0.00 0.48 0.48 96 1007.5
20260507122824 8 355 0.0 0.0 0.00 0.48 0.48 96 1007.5
20260507122319 8 316 3.2 4.8 0.00 0.48 0.48 97 1007.6
20260507121816 8 332 4.8 4.8 0.00 0.48 0.48 97 1007.6
20260507121312 8 302 3.2 3.2 0.00 0.48 0.48 98 1007.8
20260507120808 8 350 1.6 3.2 0.00 0.48 0.48 99 1007.4
20260507120305 8 7 3.2 4.8 0.00 0.48 0.48 99 1008.2
20260507115801 8 300 6.4 8.0 0.00 0.48 0.48 99 1008.3
20260507115257 8 319 4.8 8.0 0.00 0.48 0.48 99 1008.0
20260507114753 8 284 0.0 0.0 0.00 0.48 0.48 99 1007.9
20260507114250 7 333 3.2 3.2 0.00 0.48 0.48 99 1008.5
20260507113748 7 319 0.0 0.0 0.00 0.48 0.48 99 1008.6
20260507113244 7 338 0.0 0.0 0.00 0.48 0.48 99 1008.4
20260507112742 7 356 0.0 0.0 0.00 0.48 0.48 99 1008.3
20260507112238 7 333 0.0 0.0 0.00 0.48 0.48 99 1008.8
20260507111737 7 299 3.2 3.2 0.00 0.48 0.48 99 1008.8